When you browse on this site, cookies collect data to enhance your experience and personalize the content and advertising you see.
Visit our Privacy Policy to learn more. By continuing to use the site, you agree to this use of cookies and data.
  • In United Kingdom
  • List of Countries
  • For 7 days
  • Water Temperature
  • Satellite Maps
  • Weather Map
  • Weather Widgets
  • user-avatar
    Login

    Hourly Weather Knighton

    Today, 21 April, Sunday

    Time Temperature Precipitation Wind Pressure Humidity
    00:00 +8°C° 0 mm 0 mps 740 mmHg 83%
    01:00 +8°C° 0 mm 0 mps 739 mmHg 85%
    02:00 +8°C° 0 mm 0 mps 739 mmHg 86%
    03:00 +7°C° 0 mm 0 mps 738 mmHg 87%
    04:00 +9°C° 0 mm 1 mps 738 mmHg 88%
    05:00 +9°C° 0 mm 1 mps 738 mmHg 88%
    06:00 +9°C° 0 mm 1 mps 737 mmHg 88%
    07:00 +11°C° 0 mm 1 mps 737 mmHg 83%
    08:00 +13°C° 0 mm 1 mps 737 mmHg 78%
    09:00 +15°C° 0 mm 1 mps 737 mmHg 73%
    10:00 +17°C° 0 mm 2 mps 736 mmHg 69%
    11:00 +18°C° 0 mm 2 mps 736 mmHg 64%
    12:00 +19°C° 0 mm 2 mps 736 mmHg 60%
    13:00 +19°C° 0 mm 2 mps 735 mmHg 60%
    14:00 +19°C° 0 mm 3 mps 734 mmHg 61%
    15:00 +19°C° 0 mm 3 mps 734 mmHg 61%
    16:00 +18°C° 0 mm 3 mps 733 mmHg 67%
    17:00 +18°C° 0 mm 2 mps 733 mmHg 72%
    18:00 +17°C° 0 mm 2 mps 732 mmHg 78%
    19:00 +15°C° 0 mm 2 mps 732 mmHg 81%
    20:00 +13°C° 0 mm 2 mps 731 mmHg 85%
    21:00 +11°C° 0 mm 1 mps 731 mmHg 88%
    22:00 +10°C° 0 mm 1 mps 731 mmHg 89%
    23:00 +9°C° 0 mm 2 mps 730 mmHg 90%

    Tomorrow, 22 April, Monday

    Time Temperature Precipitation Wind Pressure Humidity
    00:00 +8°C° 0 mm 2 mps 730 mmHg 90%
    01:00 +8°C° 0 mm 2 mps 729 mmHg 90%
    02:00 +8°C° 0 mm 1 mps 728 mmHg 90%
    03:00 +8°C° 0 mm 1 mps 728 mmHg 90%
    04:00 +7°C° 0 mm 2 mps 727 mmHg 90%
    05:00 +7°C° 0 mm 2 mps 727 mmHg 91%
    06:00 +7°C° 0 mm 2 mps 726 mmHg 91%
    07:00 +9°C° 0 mm 2 mps 726 mmHg 86%
    08:00 +11°C° 0 mm 3 mps 726 mmHg 80%
    09:00 +13°C° 0 mm 4 mps 726 mmHg 75%
    10:00 +14°C° 0 mm 4 mps 725 mmHg 72%
    11:00 +16°C° 0 mm 5 mps 725 mmHg 69%
    12:00 +17°C° 0 mm 6 mps 724 mmHg 66%
    13:00 +17°C° 0.2 mm 5 mps 724 mmHg 67%
    14:00 +17°C° 0.2 mm 5 mps 723 mmHg 68%
    15:00 +17°C° 0.2 mm 5 mps 723 mmHg 68%
    16:00 +16°C° 0.3 mm 5 mps 722 mmHg 73%
    17:00 +15°C° 0.3 mm 4 mps 722 mmHg 77%
    18:00 +16°C° 0.3 mm 3 mps 721 mmHg 82%
    19:00 +13°C° 0 mm 3 mps 721 mmHg 86%
    20:00 +12°C° 0 mm 3 mps 721 mmHg 89%
    21:00 +11°C° 0 mm 3 mps 721 mmHg 93%
    22:00 +10°C° 0 mm 2 mps 721 mmHg 93%
    23:00 +9°C° 0 mm 2 mps 721 mmHg 94%

    Day after tomorrow, 23 April, Tuesday

    Time Temperature Precipitation Wind Pressure Humidity
    00:00 +9°C° 0 mm 2 mps 720 mmHg 95%
    01:00 +8°C° 0 mm 2 mps 720 mmHg 95%
    02:00 +8°C° 0 mm 2 mps 720 mmHg 95%
    03:00 +8°C° 0 mm 2 mps 719 mmHg 95%
    04:00 +8°C° 0 mm 2 mps 719 mmHg 95%
    05:00 +8°C° 0 mm 2 mps 719 mmHg 95%
    06:00 +8°C° 0 mm 2 mps 719 mmHg 95%
    07:00 +10°C° 0 mm 2 mps 719 mmHg 92%
    08:00 +11°C° 0 mm 3 mps 719 mmHg 89%
    09:00 +13°C° 0 mm 3 mps 719 mmHg 86%
    10:00 +15°C° 0.1 mm 4 mps 719 mmHg 82%
    11:00 +16°C° 0.1 mm 5 mps 719 mmHg 77%
    12:00 +19°C° 0.1 mm 5 mps 719 mmHg 73%
    13:00 +19°C° 0.3 mm 5 mps 719 mmHg 73%
    14:00 +19°C° 0.3 mm 5 mps 719 mmHg 74%
    15:00 +19°C° 0.3 mm 5 mps 718 mmHg 75%
    16:00 +17°C° 0.2 mm 5 mps 718 mmHg 78%
    17:00 +16°C° 0.2 mm 5 mps 718 mmHg 81%
    18:00 +15°C° 0.2 mm 5 mps 717 mmHg 84%
    19:00 +13°C° 0 mm 4 mps 717 mmHg 86%
    20:00 +11°C° 0 mm 4 mps 717 mmHg 88%
    21:00 +9°C° 0 mm 3 mps 718 mmHg 90%
    22:00 +9°C° 0 mm 3 mps 717 mmHg 91%
    23:00 +8°C° 0 mm 3 mps 717 mmHg 92%

    24 April, Wednesday

    Time Temperature Precipitation Wind Pressure Humidity
    00:00 +7°C° 0 mm 2 mps 716 mmHg 93%
    01:00 +7°C° 0 mm 2 mps 716 mmHg 94%
    02:00 +6°C° 0 mm 2 mps 715 mmHg 96%
    03:00 +6°C° 0 mm 2 mps 715 mmHg 97%
    04:00 +7°C° 0.2 mm 2 mps 715 mmHg 97%
    05:00 +7°C° 0.2 mm 3 mps 715 mmHg 97%
    06:00 +7°C° 0.2 mm 3 mps 715 mmHg 96%
    07:00 +6°C° 2.3 mm 4 mps 715 mmHg 96%
    08:00 +6°C° 2.3 mm 5 mps 715 mmHg 95%
    09:00 +5°C° 2.3 mm 6 mps 716 mmHg 94%
    10:00 +7°C° 0.4 mm 6 mps 716 mmHg 89%
    11:00 +7°C° 0.4 mm 5 mps 717 mmHg 85%
    12:00 +8°C° 0.4 mm 5 mps 717 mmHg 80%
    13:00 +9°C° 0.1 mm 5 mps 717 mmHg 76%
    14:00 +10°C° 0.1 mm 5 mps 717 mmHg 73%
    15:00 +10°C° 0.1 mm 5 mps 718 mmHg 69%
    16:00 +10°C° 0.3 mm 5 mps 717 mmHg 73%
    17:00 +10°C° 0.3 mm 4 mps 717 mmHg 78%
    18:00 +10°C° 0.3 mm 4 mps 717 mmHg 82%
    19:00 +7°C° 0 mm 4 mps 717 mmHg 84%
    20:00 +6°C° 0 mm 4 mps 717 mmHg 87%
    21:00 +5°C° 0 mm 4 mps 717 mmHg 89%
    22:00 +5°C° 0 mm 4 mps 716 mmHg 92%
    23:00 +3°C° 0 mm 5 mps 716 mmHg 94%

    25 April, Thursday

    Time Temperature Precipitation Wind Pressure Humidity
    00:00 +3°C° 0 mm 5 mps 715 mmHg 96%
    01:00 +3°C° 0.6 mm 6 mps 715 mmHg 95%
    02:00 +4°C° 0.6 mm 7 mps 714 mmHg 93%
    03:00 +4°C° 0.6 mm 7 mps 714 mmHg 91%
    04:00 +4°C° 0 mm 7 mps 714 mmHg 92%
    05:00 +3°C° 0 mm 7 mps 714 mmHg 92%
    06:00 +3°C° 0 mm 7 mps 714 mmHg 92%
    07:00 +4°C° 0.1 mm 8 mps 714 mmHg 88%
    08:00 +5°C° 0.1 mm 9 mps 715 mmHg 84%
    09:00 +6°C° 0.1 mm 10 mps 715 mmHg 80%
    10:00 +6°C° 0.3 mm 10 mps 716 mmHg 78%
    11:00 +7°C° 0.3 mm 9 mps 716 mmHg 76%
    12:00 +7°C° 0.3 mm 9 mps 717 mmHg 74%
    13:00 +7°C° 0.4 mm 9 mps 717 mmHg 73%
    14:00 +7°C° 0.4 mm 9 mps 718 mmHg 73%
    15:00 +7°C° 0.4 mm 9 mps 718 mmHg 72%
    16:00 +7°C° 0.3 mm 8 mps 718 mmHg 76%
    17:00 +6°C° 0.3 mm 7 mps 719 mmHg 81%
    18:00 +7°C° 0.3 mm 6 mps 719 mmHg 85%
    19:00 +5°C° 0 mm 5 mps 719 mmHg 88%
    20:00 +4°C° 0 mm 4 mps 720 mmHg 91%
    21:00 +3°C° 0 mm 4 mps 721 mmHg 94%
    22:00 +3°C° 0 mm 4 mps 721 mmHg 94%
    23:00 +3°C° 0 mm 4 mps 721 mmHg 93%

    26 April, Friday

    Time Temperature Precipitation Wind Pressure Humidity
    00:00 +2°C° 0 mm 5 mps 722 mmHg 93%
    01:00 +2°C° 0 mm 5 mps 722 mmHg 92%
    02:00 +2°C° 0 mm 5 mps 722 mmHg 91%
    03:00 +2°C° 0 mm 5 mps 722 mmHg 90%
    04:00 +2°C° 0.2 mm 6 mps 723 mmHg 90%
    05:00 +3°C° 0.2 mm 6 mps 724 mmHg 90%
    06:00 +3°C° 0.2 mm 7 mps 725 mmHg 90%
    07:00 +4°C° 0.1 mm 7 mps 726 mmHg 84%
    08:00 +4°C° 0.1 mm 8 mps 726 mmHg 79%
    09:00 +5°C° 0.1 mm 8 mps 727 mmHg 73%
    10:00 +6°C° 0.1 mm 8 mps 728 mmHg 68%
    11:00 +7°C° 0.1 mm 8 mps 728 mmHg 64%
    12:00 +7°C° 0.1 mm 8 mps 728 mmHg 60%
    13:00 +7°C° 0.1 mm 8 mps 728 mmHg 66%
    14:00 +7°C° 0.1 mm 8 mps 727 mmHg 72%
    15:00 +6°C° 0.1 mm 8 mps 727 mmHg 78%
    16:00 +6°C° 0.5 mm 9 mps 726 mmHg 83%
    17:00 +5°C° 0.5 mm 9 mps 725 mmHg 87%
    18:00 +5°C° 0.5 mm 10 mps 725 mmHg 92%
    19:00 +5°C° 1.9 mm 10 mps 724 mmHg 93%
    20:00 +5°C° 1.9 mm 10 mps 724 mmHg 94%
    21:00 +5°C° 1.9 mm 10 mps 723 mmHg 95%
    22:00 +4°C° 0.7 mm 8 mps 724 mmHg 93%
    23:00 +3°C° 0.7 mm 6 mps 724 mmHg 91%
    Show more